Regional Weather Roundup
Issued by NWS

Home | Current Version | Previous Version | Graphics & Text | Print | Product List | Glossary On
Versions: 1 2 3 4 5 6 7 8 9 10 11 12 13 14 15 16 17 18 19 20 21 22 23 24 25 26 27
000
ASUS45 KPSR 270910
RWRAZ

ARIZONA HOURLY REGIONAL WEATHER ROUNDUP
NATIONAL WEATHER SERVICE PHOENIX AZ
200 AM MST TUE SEP 27 2016

NOTE: FAIR INDICATES FEW OR NO CLOUDS BELOW 12,000 FEET WITH NO
SIGNIFICANT WEATHER AND/OR OBSTRUCTIONS TO VISIBILITY.

AZZ001>003-036-271000-
NORTHWEST ARIZONA

CITY           SKY/WX    TMP DP  RH WIND       PRES   REMARKS
BULLHEAD CITY  PTCLDY    77  46  33 E6        29.95F
KINGMAN        PTCLDY    62  38  40 SE10      30.11S
$$

AZZ004>008-015-016-018-271000-
NORTH CENTRAL ARIZONA

CITY           SKY/WX    TMP DP  RH WIND       PRES   REMARKS
GRAND CANYON   PTCLDY    44  36  73 VRB3      30.33F
PRESCOTT       MOCLDY    59  46  62 CALM      30.20F
FLAGSTAFF      PTCLDY    44  33  65 CALM      30.32F
PAGE           CLEAR     59  37  44 CALM      30.20S
$$

AZZ009>014-017-271000-
NORTHEAST ARIZONA

CITY           SKY/WX    TMP DP  RH WIND       PRES   REMARKS
WINSLOW        MOCLDY    53  29  39 CALM      30.23F
SAINT JOHNS    CLOUDY    57  30  35 E9        30.25F
WINDOW ROCK    PTCLDY    39  26  59 CALM      30.36F
$$

AZZ023-271000-
GREATER PHOENIX AREA

CITY           SKY/WX    TMP DP  RH WIND       PRES   REMARKS
PHOENIX        MOCLDY    76  48  37 E7        29.98F
LUKE AFB       MOCLDY    74  51  44 NE7       29.98F
DEER VALLEY    MOCLDY    75  47  36 E7        29.99F
SCOTTSDALE     MOCLDY    76  46  34 E7        30.02F
MESA-GATEWAY   PTCLDY    68  46  45 E3        30.02S
$$

AZZ027-028-271000-
SOUTHWEST MARICOPA COUNTY AND PINAL COUNTY

CITY           SKY/WX    TMP DP  RH WIND       PRES   REMARKS
CASA GRANDE    MOCLDY    72  45  37 NE10      30.01F
GILA BEND      FAIR      75  46  35 E7        29.94F
$$

AZZ503-504-507>509-271000-
SOUTHEAST ARIZONA

CITY           SKY/WX    TMP DP  RH WIND       PRES   REMARKS
TUCSON         PTCLDY    67  48  50 E8        30.06F
DAVIS-MONTHAN  PTCLDY    65  49  58 SE5       30.05F
NOGALES        MOCLDY    59  48  67 CALM      30.12R
SIERRA VISTA   PTCLDY    54  48  80 SE10      30.18F
DOUGLAS        PTCLDY    57  46  66 E14G22    30.17F
SAFFORD        PTCLDY    59  48  67 SE9       30.19F
$$

AZZ020-021-025-026-031-271000-
SOUTHWEST ARIZONA

CITY           SKY/WX    TMP DP  RH WIND       PRES   REMARKS
YUMA           NOT AVBL
$$

CAZ031-033-041-043-047-048-061-271000-
SOUTHERN CALIFORNIA

CITY           SKY/WX    TMP DP  RH WIND       PRES   REMARKS
DOWNTOWN L.A.  CLEAR     74  53  48 CALM      29.84F
L.A. AIRPORT   PTCLDY    73  52  47 E5        29.85F
SAN DIEGO      CLOUDY    85  45  24 CALM      29.86F
BURBANK        CLEAR     78  33  19 CALM      29.87F
ONTARIO        CLEAR     74  37  26 NE5       29.91R
RIVERSIDE      CLEAR     74  39  28 CALM      29.91F
PALM SPRINGS   CLEAR     79  52  38 W5        29.93F
EL CENTRO NAS  MOCLDY    79  48  33 CALM      29.89S
IMPERIAL       PTCLDY    84  51  31 E3        29.87S
BLYTHE         MOCLDY    81  50  33 E8        29.92S
NEEDLES        PTCLDY    84  50  30 SW9       29.95S
$$

NVZ020-UTZ003-271000-
SOUTHERN NEVADA-UTAH

CITY           SKY/WX    TMP DP  RH WIND       PRES   REMARKS
LAS VEGAS      CLEAR     72  30  21 SW5       30.02S
SALT LAKE CITY CLEAR     54  49  83 SE8       30.23F
$$

NMZ009-TXZ055-271000-
NEW MEXICO-WEST TEXAS

CITY           SKY/WX    TMP DP  RH WIND       PRES   REMARKS
ALBUQUERQUE    PTCLDY    56  34  43 N7        30.34S
EL PASO        MOCLDY    56  45  66 CALM      30.27F
$$


........................KEY........................
SKY/WX - SKY CONDITION/WEATHER
TMP    - TEMPERATURE IN FAHRENHEIT
DP     - DEW POINT IN FAHRENHEIT
RH     - RELATIVE HUMIDITY IN PERCENT
WIND   - DIRECTION AND SPEED IN MILES PER HOUR (MPH)
VRB    - VARIABLE WIND DIRECTION
PRES   - MEAN SEA LEVEL PRESSURE IN INCHES OF MERCURY
         F - FALLING PRESSURE   R - RISING PRESSURE
         S - STEADY PRESSURE
VSB    - VISIBILITY IN MILES
HX     - HEAT INDEX IN FAHRENHEIT
WCI    - WIND CHILL INDEX IN FAHRENHEIT
TC     - TEMPERATURE IN CELSIUS WHICH IS ALSO KNOWN AS
         TEMPERATURE IN CENTIGRADE
AFB    - AIR FORCE BASE
         LUKE AFB IS LUKE AIR FORCE BASE
         DAVIS-MONTHAN IS DAVIS-MONTHAN AIR FORCE BASE
NAS    - NAVAL AIR STATION
         EL CENTRO NAS IS EL CENTRO NAVAL AIR STATION
N/A    - NOT AVAILABLE





USA.gov is the U.S. government's official web portal to all federal, state and local government web resources and services.